Wind_Speed
27 28 27 24 23 22 21 21 20 17 15 13 10 9 13 16 16 15 14 13 12 12 13 12 12 12 13 14 13 15 15 16 17 17 18 19 19 19 19 19 19 18
27 27 25 23 23 22 21 21 19 17 15 12 11 15 18 18 15 14 14 14 13 13 14 14 13 13 14 14 14 15 15 16 18 18 18 20 21 21 22 21 21 20
27 26 25 24 24 23 22 21 19 17 14 12 16 20 19 16 15 15 14 13 14 15 15 14 14 14 14 15 15 15 15 16 18 18 19 21 22 22 23 22 22 22
27 26 25 24 24 24 23 22 19 16 13 15 20 21 17 16 16 15 14 14 16 17 16 15 15 14 14 15 15 16 16 17 18 18 21 23 23 23 24 23 23 22
27 25 24 24 24 25 24 22 19 16 16 20 22 20 17 16 16 16 16 16 18 18 16 15 15 14 14 15 16 16 17 18 18 19 22 24 24 24 24 24 24 23
26 25 24 24 25 25 24 21 18 18 20 24 23 19 17 16 16 17 17 18 19 17 15 16 16 15 15 16 17 17 18 19 20 21 24 25 25 25 25 25 25 25
25 25 25 25 25 24 22 19 18 21 24 24 22 19 17 16 16 17 17 19 19 16 15 16 16 16 15 15 17 18 18 19 20 22 24 25 26 26 26 26 27 26
26 26 25 25 24 23 21 19 20 23 23 22 20 18 16 17 17 17 17 17 17 15 15 17 16 16 15 14 17 18 18 19 20 22 24 25 25 26 26 26 27 26
26 25 25 24 23 22 20 19 22 24 21 19 18 16 17 19 18 18 17 16 15 15 16 18 17 16 15 15 16 17 18 19 20 21 22 23 24 24 24 25 25 25
26 25 24 23 21 19 19 20 23 22 19 17 17 17 20 22 20 19 17 16 16 17 18 19 18 17 16 16 15 16 17 19 20 21 21 21 21 21 21 22 23 23
25 24 24 22 20 19 20 21 21 19 17 17 18 21 24 24 21 20 18 17 17 18 19 19 18 17 16 16 16 15 16 17 19 20 19 19 18 18 19 20 20 20
26 25 23 20 19 20 20 18 16 16 17 19 21 24 26 24 22 21 19 18 18 18 19 19 18 17 16 16 16 14 14 16 18 18 18 17 17 16 16 17 18 18
26 25 22 20 20 20 17 14 15 18 21 24 25 25 25 23 22 21 19 18 18 18 19 19 18 17 16 16 15 13 13 14 16 17 17 15 15 15 14 14 15 16
26 25 21 19 20 19 14 15 19 22 24 26 25 25 23 22 21 21 21 20 19 19 20 19 18 17 16 15 14 12 12 13 15 16 15 14 13 13 13 13 12 12
26 25 20 17 19 17 15 19 23 24 25 25 24 23 22 21 21 21 21 21 20 20 20 19 18 17 15 13 12 11 11 12 14 15 14 13 12 12 13 12 11 11
26 23 18 18 19 18 18 22 24 24 24 24 22 22 21 21 21 22 22 22 21 21 20 19 17 16 14 11 10 10 11 12 13 14 14 12 12 13 13 13 12 11
25 22 19 19 20 19 21 24 24 24 23 22 21 21 21 21 22 22 22 22 22 21 20 18 17 15 13 11 9 9 9 10 12 14 14 13 13 14 15 14 14 13
24 21 20 19 20 21 24 25 24 24 23 21 21 21 21 22 23 23 23 22 21 20 18 17 16 14 12 10 9 8 9 10 13 15 15 14 14 14 15 14 14 13
24 21 20 20 21 24 27 26 25 24 23 22 22 22 22 23 23 23 23 22 20 19 17 16 15 13 11 10 9 9 10 12 15 16 16 14 14 13 13 13 13 12
24 22 20 21 24 27 28 27 26 24 23 22 23 23 24 24 24 24 22 20 18 17 16 16 15 13 11 11 11 12 14 15 16 16 16 14 13 12 11 11 12 11
25 23 21 22 26 28 29 28 26 25 24 24 24 24 24 24 24 23 22 19 18 17 18 17 15 14 14 14 16 17 17 18 18 18 17 15 14 13 12 11 11 11
27 25 23 24 28 29 29 28 27 26 25 25 25 25 24 24 24 23 22 21 20 19 20 20 18 17 17 19 19 19 20 20 20 20 19 18 16 15 14 13 12 12
30 28 26 27 30 30 30 30 28 27 26 26 26 26 25 25 24 24 22 22 22 21 22 23 21 19 19 19 20 20 20 21 21 21 20 18 17 16 15 14 13 12
32 32 30 30 32 31 31 31 29 28 27 26 26 27 26 25 24 24 23 22 21 21 21 23 23 20 18 19 19 19 19 21 21 21 20 18 17 16 14 13 13 12
31 31 31 31 32 32 32 31 29 28 27 26 26 28 27 26 24 24 23 22 20 20 20 21 22 21 18 18 18 17 18 19 20 20 20 18 16 15 14 13 12 11
28 28 28 29 30 31 31 30 29 28 27 27 27 27 27 26 24 23 23 22 21 20 19 20 21 21 19 17 16 16 17 18 19 20 20 18 16 15 15 14 12 11
Wind_Direction
178 176 176 175 176 176 174 171 170 168 165 162 156 144 136 134 133 131 127 119 112 109 110 112 108 103 97 91 93 96 97 96 93 95 93 90 87 81 77 73 70 69
178 177 178 177 178 179 176 173 173 170 164 157 147 138 134 132 132 131 127 120 112 111 116 118 112 105 98 92 94 97 99 98 95 95 93 89 85 80 76 73 71 71
178 179 181 182 181 178 174 172 171 167 160 150 144 139 135 133 130 129 128 120 114 118 122 121 115 109 99 91 93 98 101 99 97 97 94 88 84 80 76 73 72 72
179 183 184 183 182 177 172 170 166 162 158 151 147 143 138 135 131 129 127 121 118 122 124 123 120 111 99 90 93 100 102 101 99 99 96 89 84 80 76 74 73 73
181 184 183 181 179 174 170 168 164 160 157 153 151 149 144 138 135 132 127 123 124 124 124 126 124 112 101 92 93 101 103 102 101 100 96 90 84 80 76 74 73 73
179 179 178 177 175 172 169 166 162 158 155 155 155 153 149 144 140 135 131 129 131 129 126 130 127 115 105 95 93 101 104 102 101 100 96 90 85 81 77 76 75 75
173 173 173 173 171 170 167 164 161 158 156 157 159 157 153 150 144 141 140 138 136 132 129 133 132 120 110 101 97 101 105 102 101 100 96 91 88 84 80 79 79 78
169 170 171 171 169 168 167 164 164 163 161 162 163 161 159 156 151 150 150 147 144 140 136 137 135 125 117 107 101 103 105 104 100 99 98 94 90 86 83 83 82 81
169 170 170 170 168 168 171 172 170 168 169 169 168 166 164 159 155 155 153 150 151 148 144 143 138 130 122 114 106 103 103 105 102 99 99 96 92 90 88 87 86 84
170 170 170 169 169 173 178 177 173 173 175 176 172 167 163 160 158 157 152 148 147 147 147 147 142 135 128 119 111 103 102 106 105 101 100 100 97 95 93 90 88 86
169 170 171 170 174 177 176 172 172 176 180 178 172 165 163 162 160 157 155 150 146 147 149 149 146 142 134 125 117 108 103 108 110 106 103 104 102 100 98 95 92 88
170 172 171 172 176 174 169 169 173 177 175 171 169 166 164 163 161 158 157 154 149 149 151 150 149 145 138 131 123 114 109 111 114 111 106 106 108 107 105 101 96 94
171 171 169 171 175 169 164 168 171 170 167 165 166 167 165 162 161 159 157 155 152 151 151 151 149 146 141 135 128 121 117 116 119 116 109 107 110 111 112 109 104 100
171 168 166 172 174 166 162 167 167 165 164 163 164 165 163 162 162 160 157 155 154 153 153 153 150 147 143 138 132 129 125 121 123 122 113 108 111 114 115 114 112 108
169 165 167 177 175 167 166 168 166 165 164 164 164 163 162 161 161 161 158 156 154 153 154 155 153 150 147 144 139 137 134 128 128 127 119 111 114 118 117 114 111 108
166 165 173 181 175 169 169 169 166 165 165 165 164 163 161 160 160 160 159 157 155 153 154 154 153 151 150 149 147 145 142 137 136 134 126 118 117 120 119 114 110 105
165 168 175 176 171 169 170 169 167 165 165 164 163 162 160 161 161 160 158 157 155 154 153 152 151 151 152 152 150 150 150 144 142 142 134 124 122 122 120 117 114 109
166 170 173 170 168 169 171 170 168 165 164 163 161 161 160 160 161 158 156 156 155 154 152 150 149 152 155 155 151 152 153 145 141 143 140 131 125 123 121 120 120 116
168 172 171 167 168 171 171 170 168 166 164 163 161 161 160 159 158 156 154 155 156 154 152 150 150 154 159 157 153 152 150 145 141 143 143 137 130 126 123 122 124 123
171 174 170 166 168 171 170 169 168 166 164 163 162 161 160 157 156 155 154 155 158 156 153 149 151 157 160 155 149 147 144 142 140 140 139 135 131 128 127 125 125 124
174 176 171 168 169 170 170 169 168 165 163 163 162 162 161 159 156 155 153 153 154 152 144 140 143 151 151 145 143 142 140 138 136 135 132 129 126 125 124 123 122 122
177 179 174 172 170 169 168 168 167 165 164 163 162 160 160 158 156 155 152 148 146 143 136 132 136 142 141 141 142 141 139 136 133 130 127 124 122 120 117 116 114 116
181 182 177 173 171 169 168 168 167 166 165 164 163 160 158 158 157 155 152 147 144 141 136 132 136 141 141 141 143 142 140 137 133 130 126 122 119 117 114 112 109 109
184 184 179 173 170 169 168 168 168 167 166 167 166 163 159 158 157 155 154 151 148 144 141 137 138 143 144 144 145 146 145 141 138 133 128 123 120 117 115 112 107 105
188 184 177 171 169 169 169 169 168 167 167 168 168 165 160 157 156 155 155 157 156 153 149 145 143 145 147 146 148 151 150 146 143 138 131 126 123 120 117 113 108 106
189 179 171 169 169 169 169 170 169 167 166 167 167 164 161 158 157 156 156 160 164 163 160 156 151 150 150 149 151 155 156 152 149 142 135 130 127 123 119 114 109 105
Height
808 811 814 815 817 818 820 822 824 827 828 829 830 830 831 831 831 831 832 833 833 833 832 832 832 832 832 832 832 832 831 831 830 830 829 829 828 828 827 826 825 824
809 811 813 815 817 818 820 822 824 827 828 829 830 831 831 832 831 832 832 833 833 833 833 833 833 833 833 834 833 833 833 832 832 832 831 830 830 829 828 827 826 825
809 811 813 814 816 818 820 823 825 827 828 829 830 831 832 832 832 832 833 833 833 833 833 834 834 835 835 835 835 834 834 834 833 833 832 831 831 830 829 828 827 827
809 811 813 815 817 819 821 823 826 827 828 829 830 831 832 832 832 832 833 834 833 834 834 835 835 836 836 836 836 836 836 835 835 834 833 833 832 832 831 830 829 829
809 811 813 815 817 819 821 824 825 826 827 829 830 832 832 832 832 833 833 834 833 834 835 835 836 837 837 837 837 837 837 837 836 836 834 834 834 833 833 832 831 831
809 812 814 816 818 820 822 824 825 826 827 828 830 831 832 831 832 832 833 834 834 834 835 836 837 837 838 838 838 839 839 838 838 837 836 835 835 835 835 834 833 833
809 812 815 817 818 820 822 824 825 826 827 828 830 831 831 831 831 832 833 834 835 835 836 837 838 838 839 839 839 840 840 840 839 838 837 837 837 837 837 837 836 836
810 813 815 817 819 821 822 823 825 826 827 828 829 830 831 831 831 832 834 834 835 836 837 838 838 839 840 840 840 841 841 841 841 839 839 839 839 839 839 839 839 839
811 813 816 818 820 821 822 823 824 826 827 828 829 830 830 831 831 833 834 835 836 836 837 838 839 840 841 841 841 842 842 842 842 841 841 841 841 842 842 842 842 841
811 814 816 818 820 821 822 823 824 825 826 827 829 829 830 831 832 833 834 835 836 837 838 839 840 841 842 842 842 842 842 842 842 842 842 843 843 844 844 844 844 844
812 814 817 818 820 821 821 823 823 825 826 827 828 829 830 831 832 833 834 835 836 837 839 840 841 842 842 843 843 843 843 843 843 844 844 844 845 846 846 846 846 845
812 815 817 819 820 820 821 823 824 825 826 827 828 829 830 831 832 834 835 836 837 838 839 840 842 842 843 843 843 843 843 844 844 845 845 846 847 847 848 848 847 847
812 815 817 819 819 820 821 823 824 825 826 828 829 829 830 831 832 834 835 836 838 839 840 841 842 843 843 843 843 844 844 845 845 846 847 847 848 848 849 849 849 849
812 815 817 818 819 820 822 823 825 826 827 828 829 830 831 832 833 834 836 837 838 840 841 842 843 843 843 843 844 844 845 845 846 847 847 848 849 849 850 850 850 850
813 816 817 819 820 821 823 824 825 827 828 829 829 830 831 832 833 835 836 837 839 840 841 842 843 844 844 844 844 845 845 846 847 848 849 849 850 850 851 851 851 851
813 816 817 818 820 821 823 825 826 827 828 829 830 830 831 832 834 835 836 837 839 840 842 843 844 844 844 845 845 846 846 847 848 849 850 850 851 851 851 852 852 852
813 815 816 818 819 821 823 825 826 827 828 829 830 831 832 833 834 835 837 838 839 841 842 843 844 845 845 845 846 846 847 847 848 849 850 851 852 852 852 852 853 853
813 814 815 817 818 820 823 824 826 827 828 830 831 832 833 834 834 835 837 838 840 841 842 843 844 845 845 846 846 847 848 848 849 850 851 852 852 853 853 853 853 853
812 813 814 816 818 820 822 824 825 826 828 829 831 833 834 834 835 836 837 839 840 841 842 843 844 845 846 846 847 848 848 849 850 851 852 853 853 854 854 854 854 854
811 812 814 815 817 819 821 823 825 826 827 829 831 833 834 834 835 837 838 840 841 841 843 843 845 845 845 846 847 848 849 850 851 852 853 853 854 854 855 855 854 854
809 811 813 814 816 818 820 822 824 826 828 829 831 832 834 835 836 837 838 840 841 842 842 844 845 846 846 847 848 849 850 851 852 853 854 854 855 855 855 855 855 854
807 809 811 812 814 816 819 821 823 825 827 829 830 832 834 835 836 838 839 840 841 842 843 844 845 846 847 848 849 850 852 852 853 854 854 855 856 856 856 856 855 855
803 805 808 810 812 815 817 820 822 825 826 828 830 832 834 836 837 838 839 840 841 843 843 844 846 848 848 849 850 852 853 854 854 855 855 856 856 857 856 856 856 856
799 801 803 806 809 813 816 819 822 824 826 827 829 831 834 836 837 838 840 841 842 843 844 845 847 848 850 850 852 853 854 854 855 855 856 857 857 857 857 857 856 857
797 799 801 805 809 812 815 819 821 824 826 828 829 831 833 835 837 838 840 842 843 845 846 846 848 849 851 852 853 854 855 855 856 856 856 857 858 858 857 857 857 858
799 801 805 809 812 814 816 819 821 823 826 828 829 831 833 835 837 839 840 842 844 846 847 848 849 850 851 852 854 855 856 856 857 857 857 858 858 858 858 858 858 859